QPF
0.03 0.05 0.05 0.04 0.04 0.04 0.05 0.07 0.09 0.08 0.08 0.07 0.05 0.06 0.09 0.09 0.06 0.03 0.02 0.03 0.02 0.02 0.01 0.01 0.01 0.01 0.01 0.02 0.01 0.00 0.00 0.01 0.01 0.01 0.02 0.02 0.03 0.03
0.06 0.08 0.07 0.04 0.04 0.04 0.06 0.08 0.07 0.10 0.10 0.07 0.04 0.03 0.06 0.08 0.07 0.03 0.03 0.04 0.04 0.04 0.03 0.02 0.01 0.01 0.01 0.01 0.00 0.00 0.01 0.01 0.01 0.01 0.01 0.01 0.02 0.02
0.05 0.06 0.06 0.06 0.07 0.06 0.05 0.07 0.09 0.10 0.11 0.07 0.04 0.03 0.04 0.08 0.09 0.07 0.05 0.04 0.05 0.07 0.04 0.02 0.02 0.02 0.02 0.01 0.01 0.01 0.01 0.01 0.01 0.01 0.02 0.02 0.02 0.02
0.04 0.05 0.07 0.07 0.09 0.07 0.06 0.07 0.09 0.10 0.10 0.10 0.07 0.04 0.05 0.07 0.08 0.09 0.07 0.06 0.07 0.08 0.05 0.04 0.04 0.04 0.04 0.03 0.02 0.02 0.02 0.02 0.02 0.02 0.02 0.02 0.03 0.03
0.04 0.04 0.05 0.07 0.07 0.07 0.08 0.08 0.09 0.08 0.10 0.10 0.08 0.05 0.05 0.04 0.05 0.05 0.06 0.07 0.05 0.05 0.05 0.05 0.05 0.05 0.04 0.04 0.03 0.02 0.02 0.02 0.01 0.02 0.02 0.02 0.03 0.04
0.05 0.04 0.05 0.06 0.06 0.05 0.06 0.08 0.08 0.10 0.11 0.10 0.08 0.05 0.04 0.05 0.05 0.04 0.04 0.05 0.04 0.03 0.03 0.03 0.02 0.02 0.02 0.02 0.02 0.02 0.01 0.01 0.01 0.01 0.01 0.02 0.03 0.03
0.06 0.05 0.05 0.05 0.05 0.05 0.04 0.06 0.08 0.08 0.08 0.10 0.08 0.05 0.04 0.05 0.04 0.04 0.04 0.04 0.04 0.03 0.03 0.03 0.03 0.03 0.03 0.02 0.01 0.01 0.01 0.01 0.00 0.00 0.00 0.00 0.01 0.01
0.06 0.05 0.04 0.04 0.04 0.04 0.04 0.04 0.05 0.06 0.08 0.10 0.11 0.09 0.06 0.05 0.06 0.04 0.04 0.04 0.05 0.05 0.04 0.03 0.03 0.04 0.05 0.05 0.04 0.02 0.01 0.00 0.00 0.00 0.00 0.00 0.00 0.00
0.06 0.07 0.05 0.03 0.04 0.04 0.04 0.03 0.04 0.04 0.04 0.06 0.10 0.10 0.07 0.06 0.07 0.04 0.04 0.04 0.04 0.05 0.05 0.04 0.03 0.02 0.03 0.04 0.05 0.05 0.04 0.02 0.02 0.01 0.01 0.00 0.00 0.00
0.04 0.05 0.05 0.05 0.04 0.04 0.04 0.04 0.06 0.06 0.03 0.03 0.06 0.08 0.06 0.06 0.06 0.04 0.04 0.05 0.05 0.05 0.05 0.04 0.04 0.03 0.02 0.02 0.03 0.03 0.04 0.05 0.04 0.04 0.03 0.02 0.01 0.01
0.05 0.04 0.03 0.04 0.04 0.03 0.04 0.05 0.07 0.07 0.05 0.03 0.04 0.05 0.05 0.05 0.04 0.04 0.05 0.06 0.05 0.05 0.05 0.04 0.04 0.04 0.03 0.03 0.03 0.03 0.03 0.03 0.04 0.03 0.03 0.03 0.02 0.02
0.07 0.06 0.04 0.04 0.04 0.03 0.03 0.06 0.07 0.07 0.06 0.05 0.05 0.04 0.05 0.07 0.05 0.03 0.05 0.06 0.05 0.04 0.04 0.03 0.03 0.04 0.05 0.04 0.03 0.03 0.03 0.03 0.03 0.03 0.03 0.02 0.02 0.02
0.06 0.07 0.05 0.04 0.03 0.02 0.02 0.04 0.05 0.05 0.07 0.07 0.06 0.06 0.07 0.07 0.05 0.04 0.04 0.04 0.04 0.03 0.02 0.02 0.02 0.03 0.04 0.04 0.03 0.03 0.03 0.02 0.02 0.02 0.01 0.02 0.02 0.02
0.07 0.06 0.05 0.04 0.03 0.02 0.02 0.02 0.03 0.03 0.04 0.05 0.06 0.06 0.05 0.05 0.03 0.03 0.03 0.03 0.03 0.02 0.03 0.03 0.03 0.03 0.03 0.03 0.03 0.03 0.02 0.02 0.02 0.02 0.02 0.02 0.02 0.02
0.06 0.06 0.05 0.04 0.04 0.03 0.03 0.02 0.02 0.03 0.04 0.04 0.05 0.05 0.03 0.03 0.03 0.03 0.03 0.03 0.02 0.02 0.02 0.02 0.03 0.03 0.03 0.03 0.03 0.03 0.03 0.03 0.03 0.03 0.03 0.03 0.04 0.05
0.05 0.05 0.05 0.04 0.04 0.03 0.03 0.02 0.02 0.03 0.03 0.03 0.05 0.04 0.04 0.03 0.04 0.04 0.04 0.04 0.04 0.04 0.03 0.03 0.04 0.04 0.04 0.04 0.04 0.04 0.03 0.03 0.03 0.03 0.04 0.05 0.06 0.05
0.04 0.04 0.05 0.05 0.04 0.03 0.03 0.02 0.02 0.02 0.02 0.02 0.04 0.05 0.05 0.05 0.04 0.05 0.06 0.06 0.06 0.06 0.06 0.05 0.05 0.04 0.05 0.05 0.04 0.03 0.03 0.03 0.03 0.03 0.05 0.05 0.04 0.04
0.03 0.04 0.04 0.04 0.03 0.02 0.02 0.02 0.02 0.03 0.02 0.02 0.04 0.05 0.06 0.06 0.05 0.05 0.06 0.06 0.06 0.06 0.06 0.06 0.06 0.06 0.05 0.05 0.04 0.03 0.02 0.03 0.04 0.04 0.04 0.04 0.04 0.04
0.03 0.03 0.03 0.02 0.02 0.02 0.02 0.01 0.01 0.02 0.02 0.02 0.03 0.04 0.06 0.06 0.05 0.04 0.04 0.05 0.05 0.05 0.06 0.07 0.07 0.06 0.05 0.04 0.04 0.03 0.03 0.04 0.05 0.04 0.03 0.03 0.05 0.05
0.02 0.02 0.02 0.02 0.02 0.02 0.02 0.02 0.02 0.02 0.03 0.03 0.03 0.04 0.06 0.06 0.04 0.03 0.04 0.04 0.04 0.04 0.04 0.05 0.05 0.05 0.05 0.05 0.05 0.04 0.03 0.03 0.03 0.03 0.03 0.02 0.03 0.04
0.02 0.02 0.02 0.02 0.02 0.03 0.03 0.03 0.03 0.02 0.03 0.04 0.04 0.04 0.05 0.06 0.04 0.03 0.03 0.04 0.05 0.04 0.04 0.04 0.05 0.05 0.05 0.05 0.05 0.03 0.03 0.02 0.03 0.03 0.03 0.03 0.03 0.03
0.01 0.02 0.02 0.02 0.02 0.02 0.03 0.03 0.03 0.03 0.03 0.04 0.04 0.04 0.05 0.06 0.05 0.04 0.04 0.04 0.04 0.04 0.03 0.03 0.04 0.04 0.04 0.05 0.04 0.03 0.03 0.03 0.03 0.03 0.02 0.02 0.02 0.01
0.02 0.02 0.03 0.02 0.02 0.02 0.03 0.03 0.03 0.03 0.03 0.03 0.04 0.05 0.05 0.06 0.06 0.05 0.04 0.03 0.03 0.03 0.03 0.03 0.04 0.04 0.05 0.05 0.03 0.03 0.02 0.03 0.03 0.03 0.03 0.02 0.02 0.01
MSLP
1014.94 1015.03 1015.16 1015.33 1015.50 1015.63 1015.69 1015.65 1015.49 1015.21 1014.83 1014.38 1013.91 1013.47 1013.10 1012.85 1012.74 1012.77 1012.94 1013.23 1013.59 1014.00 1014.40 1014.76 1015.05 1015.28 1015.45 1015.57 1015.65 1015.74 1015.85 1015.97 1016.12 1016.27 1016.42 1016.53 1016.60 1016.60
1015.16 1015.20 1015.30 1015.42 1015.56 1015.67 1015.71 1015.67 1015.52 1015.26 1014.90 1014.45 1013.97 1013.51 1013.10 1012.80 1012.62 1012.59 1012.70 1012.93 1013.25 1013.61 1013.98 1014.33 1014.63 1014.88 1015.07 1015.22 1015.35 1015.47 1015.61 1015.76 1015.93 1016.09 1016.24 1016.35 1016.40 1016.39
1015.41 1015.44 1015.50 1015.60 1015.71 1015.80 1015.84 1015.82 1015.69 1015.46 1015.13 1014.72 1014.26 1013.80 1013.38 1013.04 1012.81 1012.71 1012.74 1012.88 1013.12 1013.41 1013.73 1014.05 1014.33 1014.58 1014.79 1014.97 1015.13 1015.28 1015.45 1015.62 1015.79 1015.96 1016.09 1016.18 1016.21 1016.17
1015.65 1015.68 1015.73 1015.81 1015.91 1016.00 1016.05 1016.05 1015.96 1015.78 1015.51 1015.16 1014.75 1014.33 1013.91 1013.56 1013.28 1013.11 1013.05 1013.10 1013.23 1013.44 1013.68 1013.94 1014.20 1014.43 1014.65 1014.85 1015.03 1015.21 1015.39 1015.57 1015.74 1015.89 1016.00 1016.06 1016.06 1015.99
1015.83 1015.87 1015.93 1016.01 1016.11 1016.21 1016.29 1016.32 1016.29 1016.17 1015.98 1015.71 1015.37 1015.00 1014.61 1014.26 1013.95 1013.73 1013.59 1013.54 1013.57 1013.68 1013.84 1014.04 1014.25 1014.47 1014.68 1014.88 1015.08 1015.26 1015.44 1015.61 1015.76 1015.88 1015.96 1015.98 1015.94 1015.84
1015.92 1015.98 1016.06 1016.16 1016.28 1016.39 1016.49 1016.57 1016.59 1016.55 1016.44 1016.25 1016.00 1015.70 1015.37 1015.03 1014.72 1014.46 1014.26 1014.13 1014.08 1014.10 1014.18 1014.31 1014.48 1014.66 1014.86 1015.05 1015.24 1015.42 1015.58 1015.72 1015.83 1015.91 1015.94 1015.92 1015.84 1015.70
1015.95 1016.03 1016.13 1016.24 1016.37 1016.50 1016.63 1016.73 1016.80 1016.83 1016.79 1016.69 1016.53 1016.30 1016.04 1015.75 1015.45 1015.18 1014.95 1014.77 1014.65 1014.61 1014.63 1014.70 1014.82 1014.97 1015.14 1015.31 1015.47 1015.62 1015.74 1015.84 1015.90 1015.92 1015.89 1015.82 1015.70 1015.54
1015.94 1016.04 1016.15 1016.27 1016.40 1016.54 1016.67 1016.80 1016.90 1016.97 1016.99 1016.96 1016.88 1016.73 1016.53 1016.30 1016.04 1015.79 1015.55 1015.36 1015.21 1015.13 1015.11 1015.14 1015.22 1015.33 1015.46 1015.59 1015.71 1015.80 1015.87 1015.90 1015.89 1015.85 1015.77 1015.65 1015.50 1015.31
1015.94 1016.05 1016.17 1016.29 1016.41 1016.54 1016.67 1016.79 1016.89 1016.98 1017.03 1017.05 1017.01 1016.93 1016.80 1016.63 1016.42 1016.21 1016.00 1015.82 1015.68 1015.58 1015.54 1015.54 1015.59 1015.66 1015.74 1015.81 1015.87 1015.90 1015.89 1015.85 1015.77 1015.67 1015.54 1015.38 1015.20 1015.00
1015.98 1016.11 1016.23 1016.35 1016.46 1016.56 1016.66 1016.75 1016.83 1016.90 1016.95 1016.98 1016.97 1016.93 1016.85 1016.73 1016.59 1016.43 1016.27 1016.12 1016.00 1015.91 1015.87 1015.85 1015.87 1015.90 1015.92 1015.93 1015.92 1015.87 1015.78 1015.67 1015.52 1015.37 1015.19 1015.01 1014.82 1014.61
1016.07 1016.22 1016.35 1016.47 1016.57 1016.64 1016.70 1016.75 1016.79 1016.82 1016.84 1016.85 1016.85 1016.82 1016.77 1016.69 1016.60 1016.49 1016.38 1016.27 1016.19 1016.12 1016.08 1016.06 1016.04 1016.03 1016.00 1015.94 1015.85 1015.72 1015.56 1015.37 1015.18 1014.98 1014.78 1014.59 1014.40 1014.20
1016.17 1016.36 1016.52 1016.65 1016.74 1016.80 1016.82 1016.83 1016.82 1016.80 1016.78 1016.75 1016.72 1016.69 1016.65 1016.60 1016.54 1016.47 1016.41 1016.34 1016.29 1016.25 1016.21 1016.17 1016.13 1016.07 1015.98 1015.86 1015.69 1015.50 1015.27 1015.04 1014.80 1014.58 1014.38 1014.19 1014.02 1013.85
1016.22 1016.47 1016.68 1016.84 1016.95 1017.00 1017.01 1016.99 1016.94 1016.88 1016.81 1016.75 1016.69 1016.64 1016.59 1016.55 1016.51 1016.48 1016.44 1016.41 1016.37 1016.34 1016.30 1016.25 1016.18 1016.08 1015.93 1015.75 1015.53 1015.27 1015.00 1014.73 1014.48 1014.25 1014.06 1013.90 1013.76 1013.62
1016.16 1016.48 1016.75 1016.97 1017.12 1017.20 1017.22 1017.19 1017.13 1017.04 1016.95 1016.86 1016.78 1016.72 1016.66 1016.62 1016.59 1016.57 1016.54 1016.52 1016.50 1016.47 1016.42 1016.35 1016.25 1016.10 1015.92 1015.69 1015.42 1015.13 1014.83 1014.55 1014.29 1014.08 1013.91 1013.79 1013.68 1013.56
1015.94 1016.33 1016.68 1016.96 1017.17 1017.30 1017.36 1017.36 1017.32 1017.25 1017.16 1017.08 1017.00 1016.93 1016.88 1016.84 1016.81 1016.78 1016.77 1016.74 1016.72 1016.68 1016.61 1016.52 1016.38 1016.21 1015.98 1015.72 1015.43 1015.12 1014.82 1014.54 1014.29 1014.10 1013.96 1013.86 1013.78 1013.69
1015.54 1016.00 1016.41 1016.76 1017.03 1017.23 1017.36 1017.42 1017.44 1017.42 1017.38 1017.34 1017.28 1017.24 1017.20 1017.17 1017.15 1017.12 1017.10 1017.07 1017.03 1016.97 1016.89 1016.77 1016.61 1016.41 1016.17 1015.89 1015.59 1015.28 1014.98 1014.71 1014.48 1014.31 1014.19 1014.11 1014.05 1013.97
1015.00 1015.50 1015.95 1016.35 1016.69 1016.96 1017.17 1017.33 1017.43 1017.50 1017.55 1017.57 1017.58 1017.58 1017.58 1017.58 1017.56 1017.55 1017.52 1017.49 1017.43 1017.35 1017.25 1017.11 1016.93 1016.72 1016.47 1016.18 1015.88 1015.58 1015.29 1015.04 1014.83 1014.67 1014.56 1014.48 1014.41 1014.32
1014.35 1014.85 1015.33 1015.76 1016.15 1016.50 1016.80 1017.06 1017.27 1017.45 1017.60 1017.72 1017.82 1017.90 1017.95 1017.99 1018.00 1018.00 1017.98 1017.94 1017.87 1017.78 1017.66 1017.51 1017.32 1017.10 1016.85 1016.58 1016.29 1016.00 1015.73 1015.48 1015.28 1015.12 1014.99 1014.90 1014.80 1014.67
1013.67 1014.15 1014.62 1015.07 1015.50 1015.92 1016.30 1016.66 1016.99 1017.29 1017.56 1017.79 1017.99 1018.15 1018.27 1018.36 1018.41 1018.43 1018.42 1018.38 1018.31 1018.21 1018.09 1017.93 1017.75 1017.53 1017.29 1017.03 1016.75 1016.47 1016.21 1015.97 1015.76 1015.58 1015.43 1015.29 1015.15 1014.97
1013.00 1013.45 1013.91 1014.37 1014.83 1015.30 1015.76 1016.21 1016.65 1017.06 1017.44 1017.78 1018.08 1018.32 1018.52 1018.66 1018.76 1018.80 1018.81 1018.78 1018.72 1018.63 1018.51 1018.36 1018.19 1017.98 1017.75 1017.50 1017.24 1016.97 1016.71 1016.46 1016.23 1016.02 1015.83 1015.64 1015.45 1015.21
1012.39 1012.82 1013.27 1013.74 1014.23 1014.74 1015.27 1015.80 1016.33 1016.84 1017.31 1017.74 1018.12 1018.44 1018.70 1018.90 1019.04 1019.12 1019.15 1019.15 1019.10 1019.03 1018.92 1018.78 1018.62 1018.43 1018.22 1017.98 1017.73 1017.47 1017.20 1016.94 1016.69 1016.44 1016.21 1015.97 1015.71 1015.42
1011.85 1012.29 1012.75 1013.25 1013.77 1014.34 1014.92 1015.52 1016.11 1016.69 1017.23 1017.73 1018.17 1018.54 1018.85 1019.09 1019.27 1019.38 1019.45 1019.47 1019.46 1019.41 1019.33 1019.21 1019.07 1018.90 1018.71 1018.48 1018.24 1017.97 1017.70 1017.42 1017.14 1016.87 1016.59 1016.30 1016.00 1015.67
1011.38 1011.87 1012.38 1012.92 1013.50 1014.11 1014.75 1015.39 1016.03 1016.65 1017.23 1017.76 1018.24 1018.64 1018.98 1019.26 1019.47 1019.62 1019.73 1019.79 1019.81 1019.80 1019.75 1019.67 1019.55 1019.40 1019.22 1019.01 1018.77 1018.51 1018.23 1017.94 1017.64 1017.34 1017.04 1016.72 1016.38 1016.02
Thickness
5703 5703 5703 5704 5705 5705 5703 5701 5694 5689 5691 5696 5699 5702 5702 5700 5698 5697 5695 5694 5692 5690 5689 5688 5686 5685 5684 5683 5682 5682 5681 5681 5680 5680 5680 5680 5680 5680
5698 5698 5698 5699 5700 5701 5700 5699 5696 5692 5688 5692 5694 5696 5696 5696 5694 5693 5692 5690 5688 5687 5686 5684 5683 5682 5681 5680 5679 5678 5678 5677 5676 5676 5676 5676 5675 5675
5694 5694 5694 5694 5694 5695 5695 5694 5693 5691 5686 5688 5691 5691 5691 5689 5688 5688 5688 5686 5685 5684 5683 5682 5681 5679 5678 5677 5676 5675 5674 5673 5672 5672 5671 5672 5671 5671
5689 5689 5689 5690 5689 5689 5689 5688 5688 5688 5685 5681 5683 5684 5685 5685 5683 5683 5684 5683 5682 5681 5680 5679 5678 5676 5675 5674 5673 5672 5671 5670 5669 5668 5667 5667 5667 5666
5684 5684 5684 5683 5682 5683 5683 5683 5683 5683 5682 5679 5678 5679 5679 5680 5679 5679 5679 5679 5679 5678 5676 5675 5674 5673 5671 5670 5669 5668 5668 5666 5665 5664 5663 5662 5662 5662
5679 5679 5678 5678 5677 5677 5678 5677 5677 5676 5675 5674 5673 5673 5673 5674 5673 5671 5671 5672 5673 5674 5672 5671 5670 5669 5668 5667 5666 5665 5663 5662 5661 5660 5659 5658 5657 5657
5672 5673 5673 5674 5673 5672 5673 5672 5671 5669 5668 5667 5667 5667 5667 5666 5665 5666 5665 5666 5667 5668 5666 5665 5664 5663 5663 5662 5661 5660 5659 5658 5657 5655 5654 5653 5653 5652
5665 5666 5668 5668 5668 5668 5668 5668 5666 5664 5663 5661 5661 5661 5661 5662 5662 5661 5659 5658 5657 5661 5660 5659 5660 5659 5659 5658 5658 5657 5655 5654 5652 5651 5650 5649 5648 5647
5660 5660 5662 5665 5663 5663 5662 5663 5661 5661 5660 5658 5657 5657 5658 5659 5657 5655 5654 5653 5652 5655 5654 5652 5654 5653 5654 5654 5654 5652 5650 5649 5647 5646 5645 5644 5643 5643
5654 5655 5654 5655 5657 5656 5656 5657 5657 5657 5657 5656 5656 5656 5656 5655 5654 5652 5651 5650 5651 5651 5651 5646 5647 5648 5649 5648 5647 5646 5645 5644 5642 5641 5640 5639 5639 5638
5647 5648 5649 5648 5648 5648 5648 5649 5650 5651 5652 5653 5653 5652 5651 5650 5649 5647 5645 5643 5642 5643 5645 5642 5641 5641 5642 5642 5641 5640 5639 5638 5637 5636 5635 5634 5633 5632
5640 5640 5641 5641 5641 5641 5641 5641 5642 5643 5645 5647 5646 5647 5647 5646 5644 5642 5640 5638 5636 5635 5638 5636 5635 5635 5633 5636 5635 5634 5632 5632 5631 5631 5630 5629 5628 5626
5633 5634 5634 5634 5633 5633 5633 5634 5635 5637 5638 5639 5641 5641 5642 5641 5640 5639 5637 5635 5632 5631 5633 5632 5629 5629 5627 5627 5628 5629 5628 5627 5626 5625 5624 5623 5622 5620
5625 5627 5627 5626 5626 5626 5627 5629 5630 5630 5632 5633 5634 5635 5635 5636 5636 5635 5634 5632 5631 5629 5629 5628 5625 5623 5621 5620 5620 5622 5622 5622 5621 5619 5618 5617 5615 5614
5617 5618 5618 5618 5619 5620 5622 5623 5623 5625 5627 5628 5629 5630 5631 5632 5631 5630 5629 5628 5627 5626 5625 5624 5622 5620 5618 5616 5615 5616 5615 5615 5615 5614 5612 5611 5610 5608
5608 5609 5609 5611 5612 5614 5616 5617 5619 5621 5622 5623 5624 5626 5626 5626 5625 5625 5623 5621 5620 5619 5620 5619 5619 5617 5614 5614 5612 5611 5610 5609 5609 5608 5607 5605 5604 5603
5599 5601 5603 5605 5607 5609 5611 5613 5615 5616 5616 5617 5618 5619 5620 5620 5619 5619 5617 5616 5614 5612 5612 5613 5613 5612 5611 5609 5606 5605 5604 5604 5604 5603 5601 5599 5598 5597
5591 5594 5597 5599 5602 5604 5606 5608 5609 5611 5612 5613 5613 5613 5613 5613 5612 5612 5611 5610 5608 5607 5607 5606 5606 5604 5603 5602 5601 5600 5599 5598 5598 5597 5595 5593 5592 5591
5585 5589 5591 5594 5597 5599 5601 5603 5604 5606 5607 5608 5608 5608 5607 5607 5606 5605 5604 5604 5602 5601 5601 5601 5600 5597 5594 5592 5594 5594 5593 5592 5592 5590 5590 5589 5587 5586
5583 5585 5588 5590 5592 5594 5597 5598 5600 5601 5602 5602 5602 5602 5601 5600 5599 5599 5598 5597 5596 5595 5595 5595 5594 5592 5590 5588 5587 5587 5588 5587 5586 5584 5584 5583 5582 5581
5581 5583 5585 5587 5589 5591 5593 5594 5595 5596 5596 5595 5595 5595 5595 5594 5593 5593 5592 5591 5590 5590 5588 5588 5588 5588 5587 5586 5582 5581 5580 5580 5581 5579 5578 5577 5576 5575
5576 5579 5582 5584 5585 5587 5588 5589 5590 5590 5590 5589 5589 5589 5589 5588 5588 5587 5586 5585 5584 5584 5584 5583 5583 5582 5581 5578 5576 5574 5574 5573 5574 5574 5572 5572 5570 5570
5572 5574 5577 5579 5580 5581 5583 5583 5584 5584 5584 5584 5583 5583 5582 5582 5582 5581 5580 5579 5578 5577 5577 5576 5575 5575 5574 5573 5570 5569 5568 5568 5567 5567 5566 5566 5566 5565